TimePDT,TemperatureF,Dew PointF,Humidity,Sea Level PressureIn,VisibilityMPH,Wind Direction,Wind SpeedMPH,Gust SpeedMPH,PrecipitationIn,Events,Conditions,WindDirDegrees,DateUTC
12:53 AM,73.0,50.0,44,29.97,10.0,Calm,Calm,-,N/A,,Clear,0,2013-07-09 07:53:00
1:53 AM,73.0,52.0,48,29.97,10.0,Calm,Calm,-,N/A,,Clear,0,2013-07-09 08:53:00
2:53 AM,68.0,50.0,52,29.97,10.0,Calm,Calm,-,N/A,,Clear,0,2013-07-09 09:53:00
3:53 AM,66.0,50.0,56,29.97,10.0,Calm,Calm,-,N/A,,Clear,0,2013-07-09 10:53:00
4:53 AM,64.9,48.9,56,29.99,10.0,Calm,Calm,-,N/A,,Clear,0,2013-07-09 11:53:00
5:53 AM,61.0,50.0,67,29.99,10.0,Calm,Calm,-,N/A,,Clear,0,2013-07-09 12:53:00
6:53 AM,64.9,51.1,61,30.01,9.0,Calm,Calm,-,N/A,,Clear,0,2013-07-09 13:53:00
7:53 AM,69.1,51.1,53,30.02,10.0,Calm,Calm,-,N/A,,Unknown,0,2013-07-09 14:53:00
8:53 AM,72.0,51.1,48,30.02,10.0,Calm,Calm,-,N/A,,Clear,0,2013-07-09 15:53:00
9:53 AM,77.0,52.0,42,30.00,10.0,Calm,Calm,-,N/A,,Clear,0,2013-07-09 16:53:00
10:53 AM,81.0,50.0,34,29.99,10.0,Calm,Calm,-,N/A,,Clear,0,2013-07-09 17:53:00
11:53 AM,86.0,50.0,29,29.97,10.0,Calm,Calm,-,N/A,,Clear,0,2013-07-09 18:53:00
12:53 PM,91.0,46.9,22,29.95,10.0,North,5.8,-,N/A,,Clear,10,2013-07-09 19:53:00
1:53 PM,95.0,44.1,17,29.93,10.0,NNW,6.9,-,N/A,,Clear,330,2013-07-09 20:53:00
2:53 PM,97.0,45.0,17,29.91,10.0,NW,10.4,-,N/A,,Clear,320,2013-07-09 21:53:00
3:53 PM,99.0,43.0,15,29.89,10.0,West,9.2,-,N/A,,Clear,260,2013-07-09 22:53:00
4:53 PM,100.0,44.1,15,29.88,10.0,WNW,11.5,-,N/A,,Clear,300,2013-07-09 23:53:00
5:53 PM,100.0,44.1,15,29.87,10.0,WNW,11.5,-,N/A,,Clear,300,2013-07-10 00:53:00
6:53 PM,97.0,51.1,21,29.87,10.0,NNW,13.8,18.4,N/A,,Clear,340,2013-07-10 01:53:00
7:53 PM,93.0,52.0,25,29.89,10.0,North,11.5,-,N/A,,Clear,350,2013-07-10 02:53:00
8:53 PM,88.0,50.0,27,29.93,10.0,North,10.4,-,N/A,,Clear,350,2013-07-10 03:53:00
9:53 PM,84.9,50.0,30,29.96,10.0,NNW,8.1,-,N/A,,Clear,340,2013-07-10 04:53:00
10:53 PM,81.0,50.0,34,29.96,10.0,Calm,Calm,-,N/A,,Clear,0,2013-07-10 05:53:00
11:53 PM,78.1,48.9,36,29.97,10.0,Calm,Calm,-,N/A,,Clear,0,2013-07-10 06:53:00